Wind_Speed
24 22 19 18 18 18 19 19 18 16 15 15 15 15 17 18 18 18 17 17 16 15 14 12 12 12 12 12 11 12 13 13 13 13 14 14 15 16 16 16 16 16 16 15
24 20 19 21 21 20 20 19 17 16 13 13 15 16 18 18 19 19 18 18 17 15 14 12 12 12 12 13 13 13 13 14 14 14 16 16 16 17 16 17 17 17 17 17
22 20 23 23 22 21 20 18 16 15 13 14 15 18 18 19 19 19 18 17 17 15 13 13 12 12 12 13 13 12 12 13 14 15 16 17 16 16 16 16 17 18 18 18
23 23 24 23 21 21 19 18 17 16 16 16 17 17 17 18 19 18 17 17 15 14 15 12 11 12 12 13 12 12 12 13 14 15 16 17 17 17 18 18 18 19 19 19
22 23 23 22 20 20 19 18 18 18 19 19 19 18 17 17 17 17 17 16 14 14 13 12 12 13 13 13 13 13 13 14 15 16 17 17 17 19 19 18 17 19 20 19
24 25 24 21 20 20 19 19 20 21 21 21 20 20 19 18 18 18 18 16 14 15 13 12 12 13 12 12 13 13 14 14 15 15 15 17 18 19 20 19 19 20 21 20
24 24 23 22 21 20 20 20 21 22 22 21 21 22 22 21 20 19 19 17 14 12 10 11 11 12 11 11 12 12 12 13 14 15 15 17 19 19 19 20 20 20 21 21
22 22 22 21 21 20 21 21 22 22 21 19 20 21 19 19 20 19 18 15 12 11 10 10 9 9 9 10 10 10 11 11 13 15 16 17 20 20 19 21 21 21 21 21
21 20 21 20 19 20 20 21 20 21 20 19 18 18 17 17 19 19 17 14 12 10 10 8 7 8 8 9 9 9 10 11 12 14 15 17 19 20 19 21 22 21 22 21
20 21 21 20 20 20 19 19 20 21 20 20 18 16 15 15 15 14 15 14 11 9 7 7 6 7 7 7 7 7 8 9 11 13 15 16 17 19 20 21 22 21 20 21
22 22 22 22 21 20 19 21 22 21 20 20 20 17 14 12 12 12 12 12 10 9 7 6 6 6 7 6 6 7 7 7 8 10 13 14 16 17 19 20 20 21 20 21
22 23 23 23 22 20 20 21 21 22 21 21 21 18 14 13 12 12 11 10 10 8 6 6 6 7 7 6 5 6 6 6 7 8 10 12 14 16 17 19 19 20 21 21
24 25 24 25 24 23 22 22 22 22 22 22 21 19 17 15 14 12 11 10 9 8 8 8 7 6 7 5 4 5 6 6 6 7 10 12 13 14 16 18 19 21 21 21
26 27 26 26 25 24 24 24 23 23 24 23 22 20 19 17 15 14 13 12 11 9 8 9 8 6 5 5 4 4 4 6 6 7 8 11 13 15 17 18 18 20 21 21
29 29 29 28 27 27 27 26 24 24 25 24 22 20 19 17 14 13 13 12 10 10 8 8 7 7 7 5 4 4 3 4 5 6 7 9 12 14 15 17 18 18 20 20
31 31 30 30 28 28 27 26 27 27 26 24 22 21 19 18 18 17 15 14 13 12 10 9 8 8 8 8 6 5 4 4 4 6 7 8 10 12 14 15 17 18 18 18
34 33 31 31 30 30 29 28 28 28 28 26 24 22 20 19 18 16 16 16 14 13 12 11 10 10 10 10 8 7 7 6 6 7 8 9 10 12 13 15 16 16 17 18
33 32 32 31 32 32 31 30 29 29 30 27 25 22 22 21 20 19 18 17 16 15 14 13 12 10 10 10 10 10 10 9 8 8 9 10 10 11 12 13 14 16 17 17
34 32 33 33 33 32 32 31 29 29 27 25 23 22 21 20 19 18 19 18 18 16 15 15 14 12 11 11 11 11 12 11 11 10 10 11 11 12 13 15 16 16 17 18
35 34 33 33 33 34 33 31 30 28 27 25 23 22 21 20 19 19 19 19 19 19 17 16 14 14 14 14 13 13 13 13 13 13 12 12 12 12 14 15 17 17 17 18
36 34 34 34 33 33 31 30 29 30 27 26 23 22 23 22 20 19 18 19 19 18 17 16 15 15 15 15 15 15 15 14 14 14 14 14 14 15 16 17 18 18 19 20
34 34 34 33 33 31 29 28 29 29 28 27 24 23 22 21 20 19 18 19 18 18 17 17 16 16 17 17 17 16 16 16 16 16 16 16 16 17 18 18 19 19 20 21
32 33 32 32 30 28 28 27 27 28 27 26 24 23 22 22 21 19 19 19 19 18 18 19 19 19 18 19 19 19 18 18 18 18 18 18 18 18 19 19 19 20 20 20
28 29 29 28 29 28 27 26 26 25 24 23 23 23 22 21 20 19 19 19 19 19 20 19 19 19 19 19 19 20 19 19 20 20 20 20 20 21 20 20 20 21 21 21
27 26 26 26 25 25 25 25 24 24 23 22 21 21 20 20 19 18 18 18 18 18 18 18 18 18 19 19 19 19 20 20 20 21 21 21 21 22 21 21 21 21 22 23
25 24 24 23 21 20 20 21 21 22 21 21 19 18 19 18 18 18 17 17 17 16 16 17 17 18 18 18 19 19 19 20 21 21 22 23 23 23 23 23 23 24 24 24
Wind_Direction
244 244 245 242 236 231 230 229 228 230 237 246 249 248 248 254 264 273 279 284 289 282 285 286 290 290 288 282 274 268 262 258 252 245 238 232 230 228 225 224 224 220 217 218
240 239 235 233 230 229 229 229 231 232 235 245 247 246 247 257 265 271 275 283 287 288 282 286 288 286 284 280 280 268 259 257 250 242 237 231 231 227 226 225 225 222 217 217
236 231 230 228 228 227 228 230 230 231 231 243 250 250 252 258 265 271 279 285 287 287 283 285 287 285 280 282 279 270 260 253 246 239 236 235 233 226 227 226 224 222 220 219
229 228 229 227 226 227 225 228 233 234 237 242 244 250 254 259 263 275 281 285 285 286 290 291 289 288 285 280 270 269 263 251 243 239 238 235 229 226 228 227 223 221 217 216
225 225 227 227 225 225 223 225 231 232 236 241 243 247 251 256 263 273 276 278 280 282 286 290 290 288 284 279 271 264 259 251 241 238 237 232 226 225 227 225 222 219 215 214
222 222 222 221 221 221 221 224 227 231 236 241 243 249 252 257 261 268 273 275 277 283 280 286 285 283 280 277 275 265 256 248 237 236 238 231 226 226 227 225 223 221 217 216
221 221 221 219 217 215 218 223 227 231 237 242 246 251 257 258 261 266 271 271 275 283 281 286 283 281 278 277 273 262 252 242 234 233 234 230 226 226 226 224 222 220 218 218
218 218 219 219 218 216 218 224 229 235 239 243 248 255 260 253 256 261 265 266 272 287 289 289 283 278 278 278 270 264 255 241 234 232 231 228 224 225 224 224 223 221 219 218
214 211 213 216 219 220 219 225 231 236 239 242 247 253 257 255 259 260 260 263 269 284 291 294 286 278 280 281 272 265 254 240 235 231 227 225 222 221 221 222 220 220 219 219
213 208 208 208 213 216 221 225 230 235 238 241 247 251 252 263 268 264 266 259 257 273 293 309 301 293 288 288 284 268 264 243 236 232 225 222 221 220 218 217 216 215 217 217
212 208 204 208 212 215 221 223 227 233 241 248 252 252 253 259 265 272 270 263 263 271 279 297 305 296 285 282 284 272 268 258 241 225 221 221 219 217 214 213 212 214 215 215
213 211 206 210 212 216 225 228 232 236 242 250 256 256 255 258 266 273 280 269 263 260 268 290 298 294 290 279 274 268 265 259 244 227 219 217 214 211 209 209 210 210 211 212
214 215 210 209 212 216 223 227 233 239 243 250 255 259 259 259 267 275 284 283 275 264 273 281 294 295 284 288 283 270 262 252 241 228 219 214 211 211 209 210 210 210 209 212
220 221 219 216 217 221 224 226 232 238 243 249 253 257 262 266 268 271 275 281 278 274 283 283 281 291 277 283 282 283 268 251 239 229 225 219 219 216 213 214 213 214 213 216
221 224 223 221 222 224 227 228 231 238 244 250 252 255 261 260 265 270 270 274 280 281 282 286 284 294 288 278 277 278 273 255 240 233 229 223 218 213 212 214 215 215 215 220
220 223 224 224 226 228 230 230 232 237 242 247 249 251 256 258 261 268 268 269 277 282 285 289 289 281 281 281 279 281 276 270 252 239 234 231 226 221 217 216 215 217 218 224
222 224 226 227 227 230 231 232 233 235 239 245 246 250 255 258 260 264 264 268 272 275 279 283 287 279 269 262 262 269 270 269 259 248 243 241 234 231 223 221 223 222 222 226
221 224 227 229 229 231 233 234 238 240 240 241 242 251 254 257 260 263 264 266 272 276 280 284 282 277 269 258 256 261 265 263 262 253 247 248 240 238 234 230 227 227 228 232
222 225 228 230 231 233 233 236 240 242 239 240 244 250 253 256 259 260 262 264 268 273 276 277 274 268 260 254 254 257 259 261 261 259 255 253 250 246 242 241 238 236 235 239
223 225 228 231 232 233 233 234 239 241 240 241 244 251 256 260 261 265 264 265 265 267 268 269 263 257 258 255 252 254 255 257 260 260 258 255 257 254 247 249 247 245 245 247
223 225 228 232 234 235 235 233 235 241 243 246 246 253 257 259 259 261 262 263 263 265 264 259 255 254 253 253 253 255 254 256 258 259 257 257 256 256 255 255 253 252 253 254
224 225 228 231 234 235 235 234 236 242 244 246 250 255 255 254 256 259 260 260 259 259 260 258 254 252 252 253 254 256 256 256 257 258 259 261 260 260 259 258 256 255 257 259
223 226 228 229 232 235 236 236 239 242 245 247 251 252 252 254 254 256 259 259 257 256 257 256 254 254 256 255 254 256 257 257 258 260 261 262 261 263 262 262 260 260 261 264
220 223 225 229 233 233 234 237 239 240 243 247 248 250 255 257 255 256 257 257 256 255 255 253 254 256 256 258 257 253 254 256 257 259 262 263 264 265 266 266 266 263 264 266
222 223 223 226 229 232 233 235 238 238 241 242 246 247 250 254 257 256 255 257 257 255 252 251 251 253 255 258 258 256 253 254 257 260 261 264 265 267 269 268 268 268 269 269
222 222 221 225 227 227 231 235 236 235 240 241 241 243 247 253 254 256 257 256 254 253 251 250 251 253 255 257 257 258 259 259 260 261 262 263 264 265 265 267 268 269 272 274
Height
5846 5849 5852 5854 5855 5856 5857 5858 5860 5862 5862 5862 5862 5863 5863 5863 5863 5863 5863 5863 5862 5861 5861 5860 5859 5858 5858 5857 5857 5857 5858 5858 5859 5860 5862 5864 5866 5868 5870 5872 5874 5876 5879 5881
5841 5844 5847 5847 5849 5851 5852 5854 5856 5858 5858 5858 5858 5859 5859 5860 5860 5860 5859 5860 5859 5858 5857 5856 5855 5854 5853 5853 5852 5852 5853 5854 5855 5856 5858 5860 5862 5864 5866 5869 5871 5873 5876 5879
5836 5840 5839 5842 5844 5847 5849 5851 5852 5853 5854 5855 5855 5856 5856 5856 5857 5857 5856 5856 5855 5855 5854 5852 5851 5850 5849 5849 5849 5848 5848 5850 5851 5852 5854 5857 5859 5861 5863 5866 5868 5870 5873 5876
5829 5832 5834 5837 5839 5842 5844 5847 5848 5849 5850 5850 5852 5852 5853 5853 5853 5854 5854 5853 5852 5851 5850 5848 5847 5846 5846 5845 5845 5844 5845 5845 5846 5848 5850 5853 5856 5858 5860 5862 5864 5867 5869 5872
5825 5827 5829 5832 5836 5838 5840 5842 5844 5845 5846 5847 5847 5849 5850 5850 5850 5850 5850 5849 5848 5847 5846 5845 5843 5842 5842 5842 5841 5840 5840 5841 5842 5844 5846 5848 5851 5854 5856 5858 5861 5863 5866 5869
5819 5821 5824 5828 5831 5833 5836 5837 5839 5840 5841 5843 5844 5845 5846 5847 5847 5847 5847 5845 5844 5844 5842 5841 5839 5839 5838 5837 5837 5836 5836 5836 5837 5839 5841 5844 5847 5849 5852 5854 5857 5860 5862 5865
5813 5816 5819 5822 5825 5828 5831 5833 5835 5836 5837 5839 5840 5840 5842 5842 5842 5843 5843 5842 5841 5839 5838 5837 5836 5835 5834 5833 5833 5832 5831 5832 5833 5835 5837 5840 5843 5845 5847 5850 5853 5856 5859 5861
5808 5812 5815 5818 5821 5824 5826 5829 5831 5833 5834 5836 5836 5836 5838 5837 5838 5838 5838 5838 5838 5836 5835 5834 5833 5831 5830 5829 5829 5829 5828 5827 5829 5831 5833 5835 5838 5841 5843 5846 5849 5851 5854 5857
5804 5808 5811 5814 5817 5820 5822 5824 5827 5829 5830 5832 5832 5833 5834 5833 5833 5833 5833 5834 5834 5833 5832 5830 5829 5827 5826 5826 5826 5825 5824 5824 5826 5828 5829 5831 5833 5836 5838 5841 5844 5847 5850 5853
5800 5804 5807 5810 5813 5815 5819 5821 5823 5824 5826 5827 5829 5830 5830 5829 5829 5829 5829 5830 5830 5830 5829 5828 5827 5825 5825 5824 5823 5823 5822 5822 5824 5825 5826 5828 5830 5832 5834 5837 5840 5843 5846 5849
5795 5799 5803 5806 5808 5811 5815 5817 5818 5820 5822 5823 5825 5828 5827 5826 5826 5826 5826 5826 5826 5827 5826 5825 5824 5824 5823 5822 5822 5821 5822 5821 5821 5822 5824 5824 5826 5829 5831 5833 5836 5840 5842 5845
5791 5795 5798 5801 5805 5808 5810 5812 5815 5817 5818 5819 5820 5825 5823 5824 5824 5823 5823 5823 5823 5823 5823 5823 5822 5821 5821 5821 5820 5820 5820 5820 5820 5821 5822 5823 5824 5826 5828 5831 5834 5837 5839 5842
5786 5790 5794 5797 5802 5804 5805 5808 5810 5812 5814 5815 5816 5820 5819 5820 5820 5820 5820 5820 5820 5820 5821 5820 5820 5819 5820 5819 5818 5819 5819 5819 5819 5819 5820 5821 5823 5825 5827 5829 5831 5834 5836 5839
5782 5785 5789 5793 5796 5799 5801 5804 5806 5808 5809 5810 5812 5814 5815 5816 5817 5817 5818 5818 5818 5817 5818 5817 5817 5817 5818 5818 5817 5817 5817 5818 5818 5818 5819 5820 5821 5823 5825 5827 5829 5831 5833 5836
5776 5780 5783 5788 5792 5794 5797 5799 5801 5803 5804 5806 5808 5810 5811 5812 5813 5813 5814 5815 5815 5815 5816 5816 5816 5816 5816 5816 5816 5816 5816 5816 5817 5817 5818 5818 5819 5820 5822 5824 5827 5829 5831 5833
5771 5774 5779 5783 5786 5789 5791 5794 5796 5798 5799 5801 5804 5806 5807 5808 5809 5810 5811 5811 5813 5813 5814 5814 5814 5814 5815 5815 5814 5815 5815 5815 5815 5816 5816 5817 5818 5819 5820 5822 5824 5825 5827 5829
5765 5769 5774 5777 5781 5783 5786 5788 5790 5793 5795 5797 5799 5802 5803 5804 5805 5806 5807 5808 5810 5810 5811 5811 5812 5812 5812 5813 5813 5813 5813 5813 5814 5814 5815 5815 5816 5817 5817 5819 5820 5822 5823 5825
5760 5764 5767 5771 5776 5777 5782 5782 5785 5787 5790 5792 5794 5797 5798 5799 5801 5802 5803 5804 5805 5806 5807 5807 5808 5808 5808 5809 5810 5810 5811 5811 5812 5812 5813 5814 5814 5815 5815 5816 5817 5818 5820 5821
5754 5758 5761 5765 5768 5771 5775 5776 5779 5781 5784 5787 5789 5791 5793 5795 5796 5796 5797 5799 5800 5801 5802 5803 5804 5804 5805 5805 5807 5807 5808 5809 5809 5810 5810 5811 5811 5812 5813 5813 5814 5815 5816 5817
5746 5751 5755 5758 5761 5764 5769 5771 5773 5777 5779 5782 5784 5786 5788 5789 5791 5792 5792 5793 5795 5796 5797 5798 5799 5800 5801 5801 5802 5804 5804 5805 5805 5806 5807 5807 5808 5809 5809 5810 5810 5811 5812 5812
5740 5744 5747 5751 5754 5757 5762 5765 5768 5772 5775 5777 5779 5781 5782 5783 5786 5787 5787 5788 5789 5791 5792 5793 5794 5795 5796 5797 5798 5799 5800 5801 5802 5802 5803 5803 5804 5804 5805 5805 5806 5806 5807 5807
5733 5737 5741 5744 5748 5754 5756 5759 5762 5765 5768 5771 5773 5774 5776 5777 5780 5781 5782 5783 5784 5785 5787 5788 5789 5791 5792 5792 5793 5794 5795 5796 5797 5798 5798 5799 5799 5799 5800 5800 5800 5801 5801 5801
5727 5731 5735 5739 5744 5748 5750 5753 5756 5759 5762 5764 5766 5768 5770 5771 5773 5775 5776 5778 5779 5780 5781 5782 5784 5785 5786 5786 5787 5788 5789 5791 5792 5792 5793 5793 5794 5794 5794 5795 5795 5795 5795 5795
5721 5725 5730 5733 5737 5741 5744 5747 5750 5753 5756 5758 5760 5762 5764 5766 5767 5769 5771 5772 5773 5774 5776 5777 5778 5779 5780 5780 5781 5782 5784 5785 5786 5786 5787 5788 5788 5788 5788 5789 5789 5789 5789 5789
5716 5720 5724 5728 5732 5735 5739 5741 5744 5747 5750 5752 5754 5756 5759 5760 5762 5763 5765 5767 5768 5769 5770 5771 5772 5773 5774 5775 5776 5776 5777 5779 5780 5781 5782 5782 5782 5782 5782 5782 5782 5782 5782 5782
5712 5716 5720 5723 5727 5731 5734 5736 5739 5741 5744 5747 5749 5751 5753 5755 5757 5758 5759 5761 5762 5763 5764 5765 5767 5768 5769 5770 5770 5771 5772 5773 5774 5775 5775 5776 5776 5776 5776 5776 5776 5775 5775 5775